| time (UTC) | temp F | wind direction | speed knots | gust knots | rain 1hr in | rain 24hr in | rain mn in | humidity % | barometer mb |
| 20260508173709 | 58 | 252 | 8.7 | 11.3 | 0.00 | 0.00 | 0.00 | 63 | 1021.9 |
| 20260508173209 | 58 | 245 | 8.7 | 11.3 | 0.00 | 0.00 | 0.00 | 63 | 1021.9 |
| 20260508172209 | 58 | 243 | 7.8 | 12.2 | 0.00 | 0.00 | 0.00 | 63 | 1021.8 |
| 20260508171708 | 58 | 247 | 7.8 | 10.4 | 0.00 | 0.00 | 0.00 | 63 | 1022.1 |
| 20260508171209 | 58 | 245 | 7.0 | 10.4 | 0.00 | 0.00 | 0.00 | 63 | 1022.2 |
| 20260508170709 | 58 | 252 | 7.8 | 11.3 | 0.00 | 0.00 | 0.00 | 63 | 1022.1 |
| 20260508170209 | 58 | 244 | 10.4 | 13.9 | 0.00 | 0.00 | 0.00 | 63 | 1022.1 |
| 20260508165709 | 58 | 246 | 10.4 | 13.0 | 0.00 | 0.00 | 0.00 | 63 | 1021.9 |
| 20260508165209 | 58 | 248 | 8.7 | 14.8 | 0.00 | 0.00 | 0.00 | 63 | 1022.1 |
| 20260508164709 | 58 | 252 | 7.0 | 10.4 | 0.00 | 0.00 | 0.00 | 63 | 1021.9 |
| 20260508164209 | 58 | 254 | 7.8 | 10.4 | 0.00 | 0.00 | 0.00 | 63 | 1022.1 |
| 20260508162709 | 58 | 259 | 8.7 | 12.2 | 0.00 | 0.00 | 0.00 | 62 | 1022.0 |
| 20260508162209 | 58 | 268 | 7.8 | 11.3 | 0.00 | 0.00 | 0.00 | 62 | 1022.0 |
| 20260508161209 | 59 | 260 | 5.2 | 7.8 | 0.00 | 0.00 | 0.00 | 62 | 1022.0 |
| 20260508160209 | 59 | 259 | 6.1 | 7.8 | 0.00 | 0.00 | 0.00 | 61 | 1022.1 |
| 20260508155709 | 59 | 262 | 6.1 | 8.7 | 0.00 | 0.00 | 0.00 | 61 | 1021.9 |
| 20260508155209 | 59 | 253 | 7.0 | 7.8 | 0.00 | 0.00 | 0.00 | 61 | 1022.0 |
| 20260508154709 | 59 | 263 | 5.2 | 7.8 | 0.00 | 0.00 | 0.00 | 61 | 1022.0 |
| 20260508153709 | 59 | 246 | 6.1 | 8.7 | 0.00 | 0.00 | 0.00 | 61 | 1022.0 |
| 20260508153209 | 59 | 245 | 7.0 | 10.4 | 0.00 | 0.00 | 0.00 | 61 | 1022.3 |
| 20260508152208 | 59 | 251 | 6.1 | 10.4 | 0.00 | 0.00 | 0.00 | 60 | 1021.9 |
| 20260508151709 | 59 | 243 | 7.0 | 10.4 | 0.00 | 0.00 | 0.00 | 60 | 1022.0 |
| 20260508151209 | 59 | 246 | 7.8 | 10.4 | 0.00 | 0.00 | 0.00 | 60 | 1022.0 |
| 20260508150709 | 59 | 241 | 7.8 | 12.2 | 0.00 | 0.00 | 0.00 | 60 | 1022.0 |
| 20260508150208 | 59 | 247 | 8.7 | 12.2 | 0.00 | 0.00 | 0.00 | 60 | 1022.2 |
| 20260508144708 | 59 | 243 | 9.6 | 13.9 | 0.00 | 0.00 | 0.00 | 59 | 1021.8 |
| 20260508143709 | 59 | 238 | 11.3 | 17.4 | 0.00 | 0.00 | 0.00 | 59 | 1021.8 |
| 20260508143209 | 59 | 239 | 14.8 | 17.4 | 0.00 | 0.00 | 0.00 | 58 | 1021.8 |
| 20260508142709 | 59 | 247 | 11.3 | 13.9 | 0.00 | 0.00 | 0.00 | 58 | 1021.6 |
| 20260508142208 | 59 | 241 | 11.3 | 15.6 | 0.00 | 0.00 | 0.00 | 59 | 1021.8 |
| 20260508141709 | 59 | 242 | 12.2 | 17.4 | 0.00 | 0.00 | 0.00 | 58 | 1021.9 |
| 20260508141208 | 59 | 246 | 13.0 | 17.4 | 0.00 | 0.00 | 0.00 | 58 | 1021.6 |
| 20260508140709 | 59 | 243 | 13.9 | 15.6 | 0.00 | 0.00 | 0.00 | 58 | 1021.8 |
| 20260508140209 | 59 | 246 | 13.0 | 15.6 | 0.00 | 0.00 | 0.00 | 58 | 1021.5 |
| 20260508135208 | 59 | 243 | 12.2 | 15.6 | 0.00 | 0.00 | 0.00 | 58 | 1021.7 |
| 20260508134709 | 59 | 249 | 11.3 | 17.4 | 0.00 | 0.00 | 0.00 | 58 | 1021.8 |
| 20260508134209 | 59 | 246 | 12.2 | 17.4 | 0.00 | 0.00 | 0.00 | 58 | 1021.7 |
| 20260508133709 | 59 | 242 | 12.2 | 15.6 | 0.00 | 0.00 | 0.00 | 58 | 1021.7 |
| 20260508133208 | 59 | 255 | 10.4 | 13.9 | 0.00 | 0.00 | 0.00 | 58 | 1021.5 |
| 20260508132708 | 59 | 250 | 13.9 | 19.1 | 0.00 | 0.00 | 0.00 | 58 | 1021.6 |
| 20260508132208 | 59 | 247 | 11.3 | 17.4 | 0.00 | 0.00 | 0.00 | 58 | 1021.5 |
| 20260508131709 | 59 | 244 | 12.2 | 17.4 | 0.00 | 0.00 | 0.00 | 57 | 1021.6 |
| 20260508131209 | 59 | 242 | 13.9 | 17.4 | 0.00 | 0.00 | 0.00 | 57 | 1021.5 |
| 20260508130708 | 59 | 238 | 13.0 | 17.4 | 0.00 | 0.00 | 0.00 | 57 | 1021.6 |
| 20260508130209 | 59 | 250 | 12.2 | 17.4 | 0.00 | 0.00 | 0.00 | 57 | 1021.4 |
| 20260508125208 | 60 | 251 | 12.2 | 17.4 | 0.00 | 0.00 | 0.00 | 57 | 1021.4 |
| 20260508124709 | 60 | 260 | 12.2 | 17.4 | 0.00 | 0.00 | 0.00 | 57 | 1021.5 |
| 20260508124208 | 60 | 252 | 12.2 | 17.4 | 0.00 | 0.00 | 0.00 | 57 | 1021.5 |
| 20260508123708 | 60 | 248 | 14.8 | 17.4 | 0.00 | 0.00 | 0.00 | 56 | 1021.6 |
| 20260508123208 | 60 | 251 | 12.2 | 17.4 | 0.00 | 0.00 | 0.00 | 56 | 1021.5 |
| 20260508121709 | 60 | 241 | 11.3 | 18.2 | 0.00 | 0.00 | 0.00 | 56 | 1021.5 |
| 20260508121208 | 60 | 240 | 11.3 | 20.0 | 0.00 | 0.00 | 0.00 | 56 | 1021.5 |
| 20260508120709 | 60 | 252 | 13.9 | 19.1 | 0.00 | 0.00 | 0.00 | 55 | 1021.6 |
| 20260508120208 | 60 | 261 | 12.2 | 20.9 | 0.00 | 0.00 | 0.00 | 55 | 1021.5 |
| 20260508115709 | 60 | 252 | 13.0 | 20.9 | 0.00 | 0.00 | 0.00 | 55 | 1021.4 |
| 20260508115208 | 60 | 254 | 13.0 | 20.0 | 0.00 | 0.00 | 0.00 | 55 | 1021.5 |
| 20260508114208 | 60 | 252 | 13.0 | 20.0 | 0.00 | 0.00 | 0.00 | 55 | 1021.3 |
| 20260508112708 | 60 | 256 | 17.4 | 22.6 | 0.00 | 0.00 | 0.00 | 55 | 1021.2 |
| 20260508112209 | 60 | 256 | 14.8 | 22.6 | 0.00 | 0.00 | 0.00 | 55 | 1021.2 |
| 20260508111709 | 60 | 256 | 17.4 | 24.3 | 0.00 | 0.00 | 0.00 | 55 | 1021.0 |
| 20260508111209 | 60 | 258 | 17.4 | 25.2 | 0.00 | 0.00 | 0.00 | 55 | 1021.1 |
| 20260508110708 | 60 | 257 | 14.8 | 21.7 | 0.00 | 0.00 | 0.00 | 55 | 1021.0 |
| 20260508110208 | 60 | 254 | 18.2 | 24.3 | 0.00 | 0.00 | 0.00 | 55 | 1021.0 |
| 20260508105708 | 60 | 249 | 15.6 | 24.3 | 0.00 | 0.00 | 0.00 | 55 | 1021.0 |
| 20260508105208 | 60 | 252 | 19.1 | 25.2 | 0.00 | 0.00 | 0.00 | 55 | 1020.8 |
| 20260508104709 | 60 | 251 | 15.6 | 22.6 | 0.00 | 0.00 | 0.00 | 55 | 1020.8 |
| 20260508104209 | 60 | 260 | 15.6 | 24.3 | 0.00 | 0.00 | 0.00 | 54 | 1020.7 |
| 20260508103708 | 60 | 255 | 18.2 | 25.2 | 0.00 | 0.00 | 0.00 | 54 | 1020.6 |
| 20260508103208 | 60 | 257 | 18.2 | 22.6 | 0.00 | 0.00 | 0.00 | 54 | 1020.7 |
| 20260508102708 | 60 | 259 | 17.4 | 24.3 | 0.00 | 0.00 | 0.00 | 54 | 1020.6 |
| 20260508102208 | 60 | 246 | 18.2 | 24.3 | 0.00 | 0.00 | 0.00 | 54 | 1020.6 |
| 20260508101708 | 60 | 253 | 15.6 | 27.8 | 0.00 | 0.00 | 0.00 | 54 | 1020.5 |
| 20260508101208 | 60 | 256 | 20.9 | 26.1 | 0.00 | 0.00 | 0.00 | 54 | 1020.5 |
| 20260508100709 | 60 | 246 | 19.1 | 26.1 | 0.00 | 0.00 | 0.00 | 54 | 1020.6 |
| 20260508100208 | 60 | 261 | 17.4 | 25.2 | 0.00 | 0.00 | 0.00 | 54 | 1020.4 |
| 20260508095708 | 60 | 261 | 19.1 | 26.9 | 0.00 | 0.00 | 0.00 | 54 | 1020.1 |
| 20260508095209 | 60 | 260 | 18.2 | 25.2 | 0.00 | 0.00 | 0.00 | 54 | 1020.3 |
| 20260508094708 | 60 | 257 | 17.4 | 26.1 | 0.00 | 0.00 | 0.00 | 54 | 1020.2 |
| 20260508093708 | 60 | 253 | 18.2 | 24.3 | 0.00 | 0.00 | 0.00 | 54 | 1020.1 |
| 20260508093208 | 60 | 256 | 18.2 | 24.3 | 0.00 | 0.00 | 0.00 | 54 | 1020.2 |
| 20260508092708 | 60 | 256 | 15.6 | 25.2 | 0.00 | 0.00 | 0.00 | 54 | 1020.1 |
| 20260508092208 | 61 | 257 | 19.1 | 25.2 | 0.00 | 0.00 | 0.00 | 54 | 1019.9 |
| 20260508091709 | 61 | 256 | 18.2 | 26.1 | 0.00 | 0.00 | 0.00 | 54 | 1019.9 |
| 20260508091208 | 61 | 262 | 19.1 | 28.7 | 0.00 | 0.00 | 0.00 | 53 | 1019.6 |
| 20260508090708 | 61 | 258 | 19.1 | 30.4 | 0.00 | 0.00 | 0.00 | 53 | 1019.8 |
| 20260508090208 | 61 | 251 | 18.2 | 22.6 | 0.00 | 0.00 | 0.00 | 53 | 1019.8 |
| 20260508085708 | 61 | 256 | 15.6 | 26.1 | 0.00 | 0.00 | 0.00 | 53 | 1019.5 |
| 20260508085208 | 61 | 258 | 16.5 | 25.2 | 0.00 | 0.00 | 0.00 | 53 | 1019.4 |
| 20260508084708 | 61 | 258 | 14.8 | 22.6 | 0.00 | 0.00 | 0.00 | 52 | 1019.7 |
| 20260508083708 | 61 | 255 | 17.4 | 22.6 | 0.00 | 0.00 | 0.00 | 51 | 1019.3 |
| 20260508083209 | 61 | 258 | 17.4 | 22.6 | 0.00 | 0.00 | 0.00 | 51 | 1019.3 |
| 20260508082708 | 61 | 253 | 16.5 | 25.2 | 0.00 | 0.00 | 0.00 | 51 | 1019.2 |
| 20260508082208 | 62 | 256 | 18.2 | 22.6 | 0.00 | 0.00 | 0.00 | 50 | 1019.2 |
| 20260508081708 | 62 | 254 | 19.1 | 27.8 | 0.00 | 0.00 | 0.00 | 50 | 1019.0 |
| 20260508081208 | 62 | 253 | 21.7 | 30.4 | 0.00 | 0.00 | 0.00 | 50 | 1019.0 |
| 20260508080208 | 62 | 256 | 14.8 | 22.6 | 0.00 | 0.00 | 0.00 | 50 | 1018.6 |
| 20260508075708 | 62 | 260 | 13.0 | 22.6 | 0.00 | 0.00 | 0.00 | 50 | 1018.7 |
| 20260508075208 | 62 | 253 | 15.6 | 24.3 | 0.00 | 0.00 | 0.00 | 49 | 1018.4 |
| 20260508074708 | 62 | 255 | 19.1 | 22.6 | 0.00 | 0.00 | 0.00 | 48 | 1018.5 |
| 20260508074209 | 63 | 262 | 13.9 | 20.9 | 0.00 | 0.00 | 0.00 | 49 | 1018.3 |
| 20260508073708 | 63 | 258 | 14.8 | 22.6 | 0.00 | 0.00 | 0.00 | 48 | 1018.3 |
| 20260508073208 | 63 | 263 | 12.2 | 17.4 | 0.00 | 0.00 | 0.00 | 48 | 1018.1 |
| 20260508072708 | 63 | 261 | 16.5 | 22.6 | 0.00 | 0.00 | 0.00 | 47 | 1018.1 |
| 20260508072209 | 63 | 251 | 13.9 | 19.1 | 0.00 | 0.00 | 0.00 | 47 | 1018.2 |
| 20260508071708 | 63 | 256 | 17.4 | 22.6 | 0.00 | 0.00 | 0.00 | 46 | 1018.1 |
| 20260508071208 | 64 | 259 | 14.8 | 20.9 | 0.00 | 0.00 | 0.00 | 45 | 1018.2 |
| 20260508070708 | 64 | 256 | 14.8 | 21.7 | 0.00 | 0.00 | 0.00 | 45 | 1017.9 |
| 20260508070208 | 64 | 259 | 12.2 | 20.0 | 0.00 | 0.00 | 0.00 | 45 | 1017.8 |
| 20260508065208 | 65 | 259 | 12.2 | 17.4 | 0.00 | 0.00 | 0.00 | 44 | 1017.9 |
| 20260508064708 | 65 | 252 | 14.8 | 20.0 | 0.00 | 0.00 | 0.00 | 43 | 1017.5 |
| 20260508064208 | 65 | 269 | 14.8 | 19.1 | 0.00 | 0.00 | 0.00 | 43 | 1017.4 |
| 20260508063709 | 65 | 250 | 13.9 | 21.7 | 0.00 | 0.00 | 0.00 | 42 | 1017.2 |
| 20260508063208 | 66 | 249 | 18.2 | 22.6 | 0.00 | 0.00 | 0.00 | 41 | 1017.1 |
| 20260508062708 | 66 | 254 | 18.2 | 28.7 | 0.00 | 0.00 | 0.00 | 40 | 1017.0 |
| 20260508062208 | 66 | 241 | 17.4 | 22.6 | 0.00 | 0.00 | 0.00 | 40 | 1016.9 |
| 20260508061708 | 66 | 244 | 15.6 | 20.9 | 0.00 | 0.00 | 0.00 | 40 | 1016.9 |
| 20260508061208 | 67 | 249 | 16.5 | 22.6 | 0.00 | 0.00 | 0.00 | 41 | 1016.7 |
| 20260508060707 | 67 | 243 | 14.8 | 22.6 | 0.00 | 0.00 | 0.00 | 40 | 1016.5 |
| 20260508055708 | 67 | 243 | 20.0 | 25.2 | 0.00 | 0.00 | 0.00 | 37 | 1016.4 |
| 20260508055207 | 67 | 239 | 12.2 | 15.6 | 0.00 | 0.00 | 0.00 | 39 | 1016.5 |
| 20260508054207 | 67 | 235 | 18.2 | 22.6 | 0.00 | 0.00 | 0.00 | 38 | 1016.3 |
| 20260508053707 | 67 | 249 | 21.7 | 25.2 | 0.00 | 0.00 | 0.00 | 37 | 1016.2 |
| 20260508053208 | 67 | 238 | 20.0 | 26.1 | 0.00 | 0.00 | 0.00 | 38 | 1016.2 |
| 20260508052208 | 67 | 269 | 12.2 | 17.4 | 0.00 | 0.00 | 0.00 | 38 | 1016.1 |
| 20260508051707 | 67 | 264 | 11.3 | 19.1 | 0.00 | 0.00 | 0.00 | 38 | 1016.1 |
| 20260508051208 | 67 | 269 | 15.6 | 20.9 | 0.00 | 0.00 | 0.00 | 38 | 1016.1 |
| 20260508050708 | 67 | 276 | 13.9 | 19.1 | 0.00 | 0.00 | 0.00 | 38 | 1016.1 |
| 20260508050207 | 67 | 263 | 7.0 | 17.4 | 0.00 | 0.00 | 0.00 | 38 | 1015.9 |
| 20260508045708 | 68 | 261 | 14.8 | 18.2 | 0.00 | 0.00 | 0.00 | 38 | 1016.2 |
| 20260508044707 | 68 | 260 | 10.4 | 17.4 | 0.00 | 0.00 | 0.00 | 38 | 1015.9 |
| 20260508044208 | 68 | 246 | 10.4 | 17.4 | 0.00 | 0.00 | 0.00 | 38 | 1015.9 |
| 20260508043708 | 67 | 251 | 11.3 | 25.2 | 0.00 | 0.00 | 0.00 | 38 | 1015.8 |
| 20260508043207 | 67 | 249 | 15.6 | 22.6 | 0.00 | 0.00 | 0.00 | 37 | 1015.6 |
| 20260508042708 | 67 | 256 | 18.2 | 24.3 | 0.00 | 0.00 | 0.00 | 37 | 1015.5 |
| 20260508042208 | 67 | 259 | 16.5 | 21.7 | 0.00 | 0.00 | 0.00 | 37 | 1015.5 |
| 20260508041708 | 68 | 253 | 13.9 | 20.0 | 0.00 | 0.00 | 0.00 | 37 | 1015.6 |
| 20260508041208 | 67 | 240 | 15.6 | 22.6 | 0.00 | 0.00 | 0.00 | 37 | 1015.6 |
| 20260508040708 | 67 | 264 | 15.6 | 21.7 | 0.00 | 0.00 | 0.00 | 37 | 1015.7 |
| 20260508040208 | 67 | 260 | 13.9 | 22.6 | 0.00 | 0.00 | 0.00 | 37 | 1015.7 |
| 20260508035708 | 67 | 273 | 13.0 | 22.6 | 0.00 | 0.00 | 0.00 | 37 | 1015.5 |
| 20260508035208 | 68 | 260 | 17.4 | 22.6 | 0.00 | 0.00 | 0.00 | 36 | 1015.7 |
| 20260508034708 | 68 | 262 | 11.3 | 22.6 | 0.00 | 0.00 | 0.00 | 37 | 1015.5 |
| 20260508034207 | 68 | 268 | 15.6 | 22.6 | 0.00 | 0.00 | 0.00 | 36 | 1015.6 |
| 20260508033208 | 67 | 270 | 14.8 | 20.0 | 0.00 | 0.00 | 0.00 | 37 | 1015.8 |
| 20260508032708 | 67 | 250 | 16.5 | 24.3 | 0.00 | 0.00 | 0.00 | 36 | 1015.7 |
| 20260508032208 | 67 | 262 | 15.6 | 24.3 | 0.00 | 0.00 | 0.00 | 37 | 1015.7 |
| 20260508031708 | 67 | 262 | 10.4 | 20.0 | 0.00 | 0.00 | 0.00 | 38 | 1015.8 |
| 20260508031207 | 66 | 270 | 16.5 | 24.3 | 0.00 | 0.00 | 0.00 | 37 | 1015.8 |
| 20260508030708 | 66 | 278 | 15.6 | 20.9 | 0.00 | 0.00 | 0.00 | 37 | 1015.9 |
| 20260508030207 | 66 | 263 | 14.8 | 22.6 | 0.00 | 0.00 | 0.00 | 37 | 1015.8 |
| 20260508024707 | 66 | 258 | 16.5 | 26.9 | 0.00 | 0.00 | 0.00 | 38 | 1016.0 |
| 20260508024208 | 66 | 262 | 20.0 | 25.2 | 0.00 | 0.00 | 0.00 | 38 | 1016.0 |
| 20260508023708 | 66 | 279 | 13.9 | 20.9 | 0.00 | 0.00 | 0.00 | 38 | 1016.0 |
| 20260508023208 | 66 | 270 | 12.2 | 24.3 | 0.00 | 0.00 | 0.00 | 38 | 1016.1 |
| 20260508022708 | 66 | 263 | 15.6 | 25.2 | 0.00 | 0.00 | 0.00 | 38 | 1016.0 |
| 20260508022207 | 66 | 258 | 11.3 | 20.9 | 0.00 | 0.00 | 0.00 | 39 | 1016.1 |
| 20260508021707 | 66 | 262 | 13.0 | 22.6 | 0.00 | 0.00 | 0.00 | 38 | 1016.1 |
| 20260508021208 | 66 | 248 | 17.4 | 22.6 | 0.00 | 0.00 | 0.00 | 38 | 1016.4 |
| 20260508020208 | 65 | 273 | 15.6 | 22.6 | 0.00 | 0.00 | 0.00 | 39 | 1016.6 |
| 20260508015707 | 65 | 273 | 15.6 | 22.6 | 0.00 | 0.00 | 0.00 | 39 | 1016.4 |
| 20260508015207 | 65 | 252 | 13.9 | 22.6 | 0.00 | 0.00 | 0.00 | 40 | 1016.6 |
| 20260508014707 | 65 | 269 | 13.9 | 20.0 | 0.00 | 0.00 | 0.00 | 40 | 1016.8 |
| 20260508014208 | 65 | 264 | 14.8 | 20.0 | 0.00 | 0.00 | 0.00 | 40 | 1016.6 |
| 20260508013707 | 65 | 258 | 18.2 | 25.2 | 0.00 | 0.00 | 0.00 | 40 | 1016.6 |
| 20260508013207 | 65 | 266 | 13.9 | 20.0 | 0.00 | 0.00 | 0.00 | 41 | 1016.8 |
| 20260508012708 | 64 | 277 | 13.9 | 22.6 | 0.00 | 0.00 | 0.00 | 41 | 1016.8 |
| 20260508012207 | 64 | 265 | 20.9 | 25.2 | 0.00 | 0.00 | 0.00 | 40 | 1016.9 |
| 20260508010708 | 64 | 263 | 11.3 | 19.1 | 0.00 | 0.00 | 0.00 | 42 | 1017.2 |
| 20260508010208 | 63 | 264 | 18.2 | 24.3 | 0.00 | 0.00 | 0.00 | 41 | 1017.1 |
| 20260508005707 | 63 | 249 | 14.8 | 25.2 | 0.00 | 0.00 | 0.00 | 42 | 1017.1 |
| 20260508005207 | 63 | 261 | 20.9 | 24.3 | 0.00 | 0.00 | 0.00 | 42 | 1017.2 |
| 20260508004207 | 62 | 273 | 19.1 | 26.9 | 0.00 | 0.00 | 0.00 | 43 | 1017.5 |
| 20260508003708 | 62 | 283 | 19.1 | 28.7 | 0.00 | 0.00 | 0.00 | 43 | 1017.4 |
| 20260508003207 | 62 | 272 | 19.1 | 26.1 | 0.00 | 0.00 | 0.00 | 44 | 1017.4 |
| 20260508002707 | 62 | 269 | 18.2 | 26.9 | 0.00 | 0.00 | 0.00 | 45 | 1017.5 |
| 20260508002207 | 62 | 278 | 11.3 | 20.9 | 0.00 | 0.00 | 0.00 | 46 | 1017.5 |
| 20260508001708 | 61 | 271 | 17.4 | 22.6 | 0.00 | 0.00 | 0.00 | 45 | 1017.4 |
| 20260508000707 | 61 | 271 | 17.4 | 22.6 | 0.00 | 0.00 | 0.00 | 47 | 1017.8 |
| 20260508000207 | 60 | 275 | 18.2 | 25.2 | 0.00 | 0.00 | 0.00 | 47 | 1017.7 |
| 20260507235708 | 60 | 283 | 14.8 | 20.0 | 0.00 | 0.00 | 0.00 | 47 | 1017.7 |
| 20260507235207 | 60 | 276 | 12.2 | 17.4 | 0.00 | 0.00 | 0.00 | 48 | 1017.7 |
| 20260507233207 | 58 | 273 | 18.2 | 22.6 | 0.00 | 0.00 | 0.00 | 50 | 1017.8 |
| 20260507232707 | 58 | 279 | 14.8 | 21.7 | 0.00 | 0.00 | 0.00 | 50 | 1017.9 |
| 20260507232207 | 58 | 275 | 19.1 | 25.2 | 0.00 | 0.00 | 0.00 | 49 | 1017.8 |
| 20260507231707 | 58 | 271 | 15.6 | 25.2 | 0.00 | 0.00 | 0.00 | 50 | 1017.8 |
| 20260507231207 | 58 | 281 | 13.0 | 22.6 | 0.00 | 0.00 | 0.00 | 51 | 1017.9 |
| 20260507230707 | 57 | 279 | 13.9 | 26.9 | 0.00 | 0.00 | 0.00 | 51 | 1017.8 |
| 20260507230207 | 57 | 271 | 20.9 | 26.1 | 0.00 | 0.00 | 0.00 | 51 | 1017.8 |
| 20260507225707 | 57 | 270 | 18.2 | 26.1 | 0.00 | 0.00 | 0.00 | 51 | 1017.9 |
| 20260507225208 | 57 | 268 | 16.5 | 25.2 | 0.00 | 0.00 | 0.00 | 52 | 1017.7 |
| 20260507224207 | 56 | 282 | 19.1 | 26.9 | 0.00 | 0.00 | 0.00 | 53 | 1017.6 |
| 20260507223707 | 55 | 279 | 15.6 | 25.2 | 0.00 | 0.00 | 0.00 | 53 | 1017.7 |
| 20260507222708 | 55 | 287 | 17.4 | 22.6 | 0.00 | 0.00 | 0.00 | 54 | 1017.9 |
| 20260507222208 | 54 | 276 | 15.6 | 22.6 | 0.00 | 0.00 | 0.00 | 55 | 1017.9 |
| 20260507221707 | 54 | 281 | 13.9 | 21.7 | 0.00 | 0.00 | 0.00 | 55 | 1017.7 |
| 20260507221207 | 54 | 282 | 14.8 | 21.7 | 0.00 | 0.00 | 0.00 | 55 | 1017.6 |
| 20260507220207 | 53 | 282 | 13.9 | 18.2 | 0.00 | 0.00 | 0.00 | 55 | 1017.7 |
| 20260507215707 | 53 | 273 | 15.6 | 22.6 | 0.00 | 0.00 | 0.00 | 56 | 1017.6 |
| 20260507214707 | 53 | 285 | 14.8 | 20.9 | 0.00 | 0.00 | 0.00 | 56 | 1017.7 |
| 20260507213708 | 53 | 276 | 15.6 | 20.9 | 0.00 | 0.00 | 0.00 | 56 | 1017.6 |
| 20260507213207 | 53 | 279 | 14.8 | 20.0 | 0.00 | 0.00 | 0.00 | 56 | 1017.5 |
| 20260507212707 | 52 | 281 | 13.9 | 20.0 | 0.00 | 0.00 | 0.00 | 56 | 1017.5 |
| 20260507211707 | 52 | 285 | 17.4 | 22.6 | 0.00 | 0.00 | 0.00 | 56 | 1017.2 |
| 20260507211207 | 52 | 275 | 20.9 | 26.1 | 0.00 | 0.00 | 0.00 | 56 | 1017.3 |
| 20260507210707 | 52 | 282 | 17.4 | 22.6 | 0.00 | 0.00 | 0.00 | 57 | 1017.1 |
| 20260507205707 | 51 | 273 | 16.5 | 20.9 | 0.00 | 0.00 | 0.00 | 58 | 1017.4 |
| 20260507205207 | 50 | 279 | 17.4 | 20.9 | 0.00 | 0.00 | 0.00 | 58 | 1017.3 |
| 20260507204707 | 50 | 281 | 18.2 | 22.6 | 0.00 | 0.00 | 0.00 | 59 | 1017.2 |
| 20260507204207 | 50 | 280 | 13.9 | 20.9 | 0.00 | 0.00 | 0.00 | 58 | 1017.2 |
| 20260507203707 | 50 | 281 | 13.9 | 19.1 | 0.00 | 0.00 | 0.00 | 58 | 1017.3 |
| 20260507203207 | 50 | 284 | 15.6 | 19.1 | 0.00 | 0.00 | 0.00 | 57 | 1017.4 |
| 20260507202706 | 50 | 282 | 15.6 | 20.0 | 0.00 | 0.00 | 0.00 | 58 | 1017.5 |
| 20260507202207 | 50 | 283 | 14.8 | 20.0 | 0.00 | 0.00 | 0.00 | 57 | 1017.4 |
| 20260507201207 | 50 | 282 | 12.2 | 19.1 | 0.00 | 0.00 | 0.00 | 58 | 1017.5 |
| 20260507200707 | 50 | 281 | 13.0 | 18.2 | 0.00 | 0.00 | 0.00 | 57 | 1017.4 |
| 20260507200207 | 51 | 279 | 13.9 | 20.0 | 0.00 | 0.00 | 0.00 | 58 | 1017.2 |
| 20260507195707 | 51 | 279 | 13.9 | 20.0 | 0.00 | 0.00 | 0.00 | 57 | 1017.3 |
| 20260507195207 | 51 | 278 | 14.8 | 21.7 | 0.00 | 0.00 | 0.00 | 57 | 1017.3 |
| 20260507194707 | 51 | 277 | 15.6 | 21.7 | 0.00 | 0.00 | 0.00 | 57 | 1017.3 |
| 20260507194207 | 51 | 278 | 13.0 | 19.1 | 0.00 | 0.00 | 0.00 | 57 | 1017.4 |
| 20260507193707 | 51 | 272 | 14.8 | 20.9 | 0.00 | 0.00 | 0.00 | 56 | 1017.3 |
| 20260507193207 | 51 | 275 | 13.9 | 20.0 | 0.00 | 0.00 | 0.00 | 56 | 1017.3 |
| 20260507192707 | 51 | 275 | 13.9 | 20.0 | 0.00 | 0.00 | 0.00 | 56 | 1017.3 |
| 20260507192207 | 51 | 275 | 13.0 | 20.0 | 0.00 | 0.00 | 0.00 | 56 | 1017.3 |
| 20260507191207 | 51 | 275 | 15.6 | 20.9 | 0.00 | 0.00 | 0.00 | 55 | 1017.2 |
| 20260507190707 | 51 | 273 | 13.9 | 20.9 | 0.00 | 0.00 | 0.00 | 55 | 1017.1 |
| 20260507190207 | 51 | 265 | 14.8 | 20.0 | 0.00 | 0.00 | 0.00 | 56 | 1017.2 |
| 20260507185707 | 51 | 276 | 13.9 | 18.2 | 0.00 | 0.00 | 0.00 | 55 | 1017.3 |
| 20260507185206 | 51 | 281 | 11.3 | 15.6 | 0.00 | 0.00 | 0.00 | 55 | 1017.4 |
| 20260507184707 | 51 | 284 | 12.2 | 20.0 | 0.00 | 0.00 | 0.00 | 55 | 1017.4 |
| 20260507184207 | 51 | 273 | 12.2 | 17.4 | 0.00 | 0.00 | 0.00 | 55 | 1017.3 |
| 20260507183707 | 51 | 271 | 13.9 | 19.1 | 0.00 | 0.00 | 0.00 | 55 | 1017.3 |
| 20260507183206 | 51 | 275 | 14.8 | 20.9 | 0.00 | 0.00 | 0.00 | 55 | 1017.6 |
| 20260507182707 | 51 | 270 | 11.3 | 18.2 | 0.00 | 0.00 | 0.00 | 55 | 1017.6 |
| 20260507182207 | 52 | 273 | 15.6 | 22.6 | 0.00 | 0.00 | 0.00 | 54 | 1017.4 |
| 20260507181707 | 52 | 282 | 12.2 | 17.4 | 0.00 | 0.00 | 0.00 | 55 | 1017.4 |
| 20260507181206 | 52 | 267 | 12.2 | 18.2 | 0.00 | 0.00 | 0.00 | 55 | 1017.3 |
| 20260507180709 | 51 | 272 | 11.3 | 21.7 | 0.00 | 0.00 | 0.00 | 55 | 1017.2 |
| 20260507180207 | 51 | 267 | 14.8 | 21.7 | 0.00 | 0.00 | 0.00 | 55 | 1017.2 |
| 20260507175707 | 51 | 270 | 13.9 | 20.9 | 0.00 | 0.00 | 0.00 | 55 | 1017.2 |
| 20260507175206 | 51 | 262 | 13.9 | 19.1 | 0.00 | 0.00 | 0.00 | 56 | 1017.2 |
| 20260507174207 | 51 | 258 | 14.8 | 22.6 | 0.00 | 0.00 | 0.00 | 56 | 1017.3 |